Вернуться в каталог

STARLINK-37837

АктивенСвязьSSO
NORAD 69665·PAYLOAD·🇺🇸 United States

Запущен Jun 21, 2026 с Vandenberg Space Force Base

Loading…

Ближайшие Пролёты (ближайшие 24 часа)

TLE

СвежийSource: CelesTrak SupGP

Эпоха: Sep 15, 2026, 03:07 UTC

1 69665C 26143S   26258.13034722 -.00011814  00000+0 -36674-3 0  2586
2 69665  97.2844 301.3154 0001335  87.2634 295.2094 15.33445294    19

Отслеживайте STARLINK-37837 в реальном времени с AllMySat

Download on the App Store